EA1AY-13 Weather Reports


Display with metric or nautical units.
time (UTC)temp
F
wind
direction
speed
MPH
gust
MPH
rain 1hr
in
rain 24hr
in
rain mn
in
humidity
%
barometer
mb
20260510224537 54 138 0.0 4.0 0.02 0.28 0.02 62 1012.2
20260510223536 54 138 1.0 3.0 0.01 0.26 0.01 65 1012.2
20260510222517 54 0.0 4.0 0.01 0.25 0.00 67 1012.2
20260510221516 55 138 1.0 4.0 0.02 0.25 0.00 68 1012.1
20260510220517 55 138 2.0 4.0 0.02 0.25 0.00 67 1012.0
20260510215515 55 138 1.0 3.0 0.02 0.25 0.25 62 1011.9
20260510214515 55 138 0.0 2.0 0.02 0.25 0.25 59 1012.0
20260510213515 55 138 0.0 1.0 0.02 0.25 0.25 64 1012.1
20260510212516 55 138 1.0 3.0 0.02 0.24 0.24 66 1012.0
20260510211515 55 138 0.0 2.0 0.00 0.23 0.23 68 1011.9
20260510210515 55 138 0.0 2.0 0.00 0.23 0.23 72 1011.8
20260510205515 55 138 0.0 2.0 0.00 0.23 0.23 76 1011.9
20260510204516 56 0.0 0.0 0.00 0.23 0.23 79 1011.9
20260510203515 56 0.0 0.0 0.00 0.23 0.23 80 1011.8
20260510202515 56 138 0.0 4.0 0.00 0.23 0.23 79 1011.7
20260510201515 55 138 1.0 3.0 0.00 0.23 0.23 72 1011.6
20260510200515 55 138 0.0 4.0 0.00 0.24 0.23 69 1011.5
20260510195515 54 138 2.0 6.0 0.00 0.24 0.23 67 1011.5
20260510194516 54 138 1.0 3.0 0.00 0.28 0.23 65 1011.2
20260510193515 54 138 1.0 6.0 0.00 0.31 0.23 62 1011.2
20260510192515 54 0.0 3.0 0.00 0.35 0.23 63 1011.1
20260510191516 55 138 0.0 3.0 0.00 0.45 0.23 63 1011.0
20260510190515 55 0.0 0.0 0.01 0.46 0.23 64 1010.9
20260510185515 56 0.0 2.0 0.02 0.46 0.23 65 1010.7
20260510184515 56 138 0.0 3.0 0.04 0.46 0.23 65 1010.7
20260510183536 57 138 0.0 3.0 0.06 0.46 0.23 67 1010.8
20260510182515 57 0.0 0.0 0.06 0.46 0.23 69 1010.7
20260510181516 57 0.0 0.0 0.06 0.46 0.23 70 1010.8
20260510180515 57 0.0 1.0 0.06 0.45 0.22 72 1010.9
20260510175516 57 138 0.0 3.0 0.04 0.43 0.20 74 1011.1
20260510174515 57 0.0 0.0 0.02 0.42 0.19 75 1011.1
20260510173515 57 138 0.0 3.0 0.01 0.40 0.17 76 1011.3
20260510172515 58 138 1.0 3.0 0.01 0.40 0.17 77 1011.2
20260510171515 58 0.0 0.0 0.02 0.40 0.17 77 1011.0
20260510170516 58 138 1.0 2.0 0.03 0.40 0.17 77 1011.0
20260510165515 58 0.0 0.0 0.06 0.40 0.17 76 1010.9
20260510164515 58 0.0 0.0 0.08 0.41 0.17 74 1010.7
20260510163515 57 0.0 0.0 0.09 0.41 0.17 76 1010.6
20260510162515 57 0.0 0.0 0.09 0.40 0.16 79 1010.5
20260510161515 57 0.0 2.0 0.08 0.39 0.15 81 1010.5
20260510160515 58 138 1.0 3.0 0.06 0.39 0.13 81 1010.5
20260510155535 59 0.0 0.0 0.03 0.35 0.10 81 1010.5
20260510154515 60 0.0 1.0 0.02 0.35 0.09 81 1010.5
20260510153515 61 138 1.0 4.0 0.01 0.35 0.08 78 1010.7
20260510152515 61 138 0.0 2.0 0.00 0.35 0.07 75 1010.5
20260510151535 62 138 0.0 3.0 0.00 0.36 0.07 76 1010.4
20260510150515 63 0.0 0.0 0.00 0.36 0.07 76 1010.3
20260510145537 62 0.0 2.0 0.00 0.36 0.07 79 1010.3
20260510144518 62 0.0 1.0 0.00 0.36 0.07 80 1010.3
20260510143515 61 138 0.0 4.0 0.00 0.36 0.07 80 1010.2
20260510142537 63 138 2.0 5.0 0.01 0.36 0.07 76 1010.2
20260510141535 63 0.0 2.0 0.02 0.36 0.07 79 1010.2
20260510140517 62 0.0 0.0 0.02 0.36 0.07 80 1010.3
20260510135515 61 0.0 0.0 0.02 0.36 0.07 81 1010.3
20260510134518 59 0.0 0.0 0.02 0.36 0.07 78 1010.3
20260510132516 58 0.0 0.0 0.02 0.35 0.06 79 1010.2
20260510131516 58 0.0 2.0 0.02 0.35 0.06 80 1010.3
20260510130523 58 0.0 2.0 0.02 0.35 0.06 79 1010.2
20260510125516 58 0.0 0.0 0.02 0.35 0.06 78 1010.2
20260510124516 58 138 0.0 3.0 0.02 0.34 0.05 80 1010.2
20260510123517 58 138 0.0 3.0 0.03 0.33 0.04 81 1010.2
20260510122517 58 0.0 2.0 0.04 0.33 0.04 81 1010.1
20260510121517 58 138 1.0 3.0 0.03 0.32 0.03 81 1010.0
20260510120538 58 138 1.0 4.0 0.03 0.32 0.03 81 1009.9
20260510115517 58 0.0 2.0 0.03 0.32 0.03 80 1009.8
20260510114517 59 138 0.0 4.0 0.03 0.32 0.03 78 1009.9
20260510113517 59 138 0.0 6.0 0.01 0.30 0.01 77 1009.9
20260510112517 59 138 1.0 5.0 0.00 0.29 0.00 77 1010.0
20260510111517 59 138 0.0 3.0 0.00 0.29 0.00 79 1010.0
20260510110538 59 138 0.0 1.0 0.00 0.29 0.00 80 1010.0
20260510105538 59 138 0.0 2.0 0.00 0.29 0.00 80 1010.0
20260510104517 58 0.0 0.0 0.00 0.29 0.00 80 1010.0
20260510103517 58 138 0.0 3.0 0.00 0.29 0.00 80 1010.0
20260510102517 58 138 1.0 3.0 0.00 0.29 0.00 81 1010.0
20260510101517 58 138 0.0 2.0 0.00 0.29 0.00 81 1010.0
20260510100516 57 138 0.0 2.0 0.00 0.29 0.00 81 1009.9
20260510095517 57 0.0 0.0 0.00 0.29 0.00 81 1009.9
20260510094517 57 138 0.0 4.0 0.00 0.29 0.00 81 1009.8
20260510093516 56 138 0.0 2.0 0.00 0.29 0.00 81 1009.8
20260510092517 56 138 0.0 2.0 0.00 0.29 0.00 81 1009.8
20260510091556 56 0.0 0.0 0.00 0.29 0.00 81 1009.7
20260510090517 56 0.0 0.0 0.00 0.29 0.00 82 1009.6
20260510085517 56 0.0 0.0 0.00 0.29 0.00 82 1009.5
20260510084558 57 0.0 3.0 0.00 0.29 0.00 81 1009.4
20260510083517 57 138 2.0 5.0 0.00 0.29 0.00 79 1009.3
20260510082517 57 138 3.0 10.0 0.00 0.29 0.00 78 1009.3
20260510081517 58 138 4.0 8.0 0.00 0.29 0.00 77 1009.2
20260510080517 58 138 3.0 8.0 0.00 0.29 0.00 77 1009.1
20260510075517 58 138 2.0 6.0 0.00 0.29 0.00 77 1009.1
20260510074517 58 138 3.0 7.0 0.00 0.29 0.00 77 1009.0
20260510073517 58 138 4.0 8.0 0.00 0.29 0.00 77 1008.9
20260510072517 57 138 3.0 6.0 0.00 0.29 0.00 77 1008.7
20260510071516 57 138 4.0 8.0 0.00 0.29 0.00 77 1008.7
20260510070517 57 138 5.0 9.0 0.00 0.29 0.00 78 1008.6
20260510065517 56 138 4.0 8.0 0.00 0.29 0.00 78 1008.5
20260510064517 56 138 4.0 8.0 0.00 0.31 0.00 78 1008.4
20260510063517 56 138 5.0 9.0 0.00 0.31 0.00 78 1008.4
20260510062516 56 138 5.0 10.0 0.00 0.31 0.00 78 1008.4
20260510061517 56 138 5.0 10.0 0.00 0.31 0.00 78 1008.3
20260510060516 56 138 4.0 10.0 0.00 0.31 0.00 78 1008.3
20260510055516 56 138 3.0 8.0 0.00 0.31 0.00 78 1008.3
20260510054518 56 138 5.0 9.0 0.00 0.31 0.00 78 1008.2
20260510053516 56 138 3.0 8.0 0.00 0.31 0.00 78 1008.2
20260510052517 56 138 4.0 8.0 0.00 0.31 0.00 77 1008.2
20260510051517 56 138 3.0 8.0 0.00 0.31 0.00 77 1008.1
20260510050537 56 138 4.0 7.0 0.00 0.31 0.00 77 1008.1
20260510045517 56 138 4.0 8.0 0.00 0.31 0.00 77 1007.9
20260510044536 56 138 3.0 12.0 0.00 0.31 0.00 78 1008.0
20260510043516 56 138 5.0 13.0 0.00 0.31 0.00 78 1008.0
20260510042517 56 138 5.0 9.0 0.00 0.31 0.00 78 1008.1
20260510041516 56 138 5.0 11.0 0.00 0.31 0.00 79 1008.1
20260510040537 56 138 7.0 12.0 0.00 0.31 0.00 79 1008.0
20260510035556 56 138 4.0 11.0 0.00 0.31 0.00 80 1008.1
20260510034517 56 138 5.0 12.0 0.00 0.31 0.00 80 1008.2
20260510033516 56 138 5.0 10.0 0.00 0.31 0.00 80 1008.2
20260510032516 56 138 5.0 10.0 0.00 0.31 0.00 80 1008.1
20260510031516 56 138 6.0 13.0 0.00 0.31 0.00 80 1008.0
20260510030516 56 138 5.0 9.0 0.00 0.31 0.00 80 1008.0
20260510025516 56 138 6.0 10.0 0.00 0.31 0.00 80 1008.0
20260510024537 56 138 5.0 9.0 0.00 0.31 0.00 80 1007.9
20260510023517 56 138 4.0 9.0 0.00 0.31 0.00 79 1008.0
20260510022537 56 138 4.0 11.0 0.00 0.31 0.00 80 1008.1
20260510021517 56 138 4.0 6.0 0.00 0.31 0.00 80 1008.2
20260510020516 57 138 3.0 9.0 0.00 0.31 0.00 80 1008.2
20260510015516 57 138 3.0 7.0 0.00 0.31 0.00 80 1008.3
20260510014517 57 138 3.0 7.0 0.00 0.31 0.00 80 1008.3
20260510013517 57 138 2.0 7.0 0.00 0.31 0.00 81 1008.3
20260510012558 57 138 3.0 9.0 0.00 0.31 0.00 81 1008.3
20260510011516 56 138 4.0 9.0 0.00 0.31 0.00 81 1008.2
20260510010516 56 138 5.0 9.0 0.00 0.31 0.00 81 1008.3
20260510005517 56 138 4.0 8.0 0.00 0.31 0.00 80 1008.4
20260510004556 55 138 2.0 6.0 0.00 0.31 0.00 80 1008.5
20260510003516 55 138 3.0 5.0 0.00 0.31 0.00 77 1008.4
20260510002536 55 138 2.0 6.0 0.00 0.31 0.00 74 1008.4
20260510001516 54 138 1.0 4.0 0.00 0.31 0.00 74 1008.3
20260510000517 55 138 2.0 4.0 0.00 0.31 0.00 77 1008.4
20260509235517 55 138 2.0 5.0 0.00 0.31 0.00 77 1008.4
20260509234517 55 138 2.0 4.0 0.00 0.31 0.00 75 1008.3
20260509233516 55 138 0.0 3.0 0.00 0.31 0.00 76 1008.4
20260509232516 56 138 1.0 6.0 0.00 0.31 0.00 77 1008.4
20260509231516 56 138 1.0 5.0 0.00 0.31 0.00 77 1008.4
20260509230517 56 138 2.0 4.0 0.00 0.31 0.00 75 1008.4
20260509225516 56 138 3.0 8.0 0.00 0.31 0.00 77 1008.3